Weather in Kuzminskoye

Russia / Ryazan Oblast     54°51′59″N   39°38′46″E
temp.,
°C
wind,
m/s
gust,
m/s
humid.,
%
clouds,
%
prec.,
mm/h
press.,
hPa
HPBL,
m
15 may, sat
sat1500:00+15ese3595100 1.1 101283
03:00+15ese3495100 2.8 101171
06:00+17se4997100 1.9 1009228
09:00+21sse51086100 3.2 1009593
12:00+22s6979100 2.8 1010981
15:00+21s59764 4.6 10101243
18:00+20ssw510780 1.4 1011607
21:00+15ssw310891 1.8 1011208
16 may, sun
sun1600:00+13ssw412919 0.0 1012246
03:00+12ssw310935 0.0 1013215
06:00+13ssw399176 0.0 1014248
09:00+18ssw46715 0.0 1014594
12:00+22ssw47564 0.0 10141411
15:00+22ssw59531 1.3 10142108
18:00+20wsw35720 0.3 1014274
21:00+16sw008288 0.3 101511
17 may, mon
mon1700:00+14ene1187100 0.0 101511
03:00+13ese339079 0.0 101639
06:00+15ene25906 0.2 1015143
09:00+21e576993 0.2 1014520
12:00+25ese575538 0.0 1013925
15:00+26se575785 0.0 1012983
18:00+24ese4967100 0.0 1011437
21:00+19ese5157766 0.0 1011384
18 may, tue
tue1800:00+17ese516815 0.0 1010341
03:00+16se5167011 0.0 1010390
06:00+16se5147185 0.0 1009329
09:00+20se6126257 0.0 1009500
12:00+24sse711575 0.0 1009983
15:00+25s696117 0.2 10081573
18:00+21ssw4780100 0.8 1009195
21:00+17nw1186100 1.3 100811
19 may, wed
wed1900:00+16s289299 0.7 1008192
03:00+15sse229275 0.8 100724
06:00+16se2689100 0.1 1006159
09:00+17sse51082100 0.1 1005544
12:00+19sse6978100 1.3 10041162
15:00+17sse71283100 3.3 10031174
18:00+12sw111688100 0.7 10031025
21:00+13sw91681100 0.9 10071290